Location: ASU Dark Sky Observatory
(36.2504°N, 81.4125°W)
Time: 17:13:29
(UTC-04:00)

Daily predictions for brighter satellites

Satellite Brightness Start Highest point End
(mag) Time Altitude Azimuth Time Altitude Azimuth Time Altitude Azimuth
Cosmos 921 Rocket 3.7 20:59:15 10° SSW 21:03:27 60° WNW 21:07:46 10° N
USA 234 4.5 21:03:06 10° E 21:07:07 17° ESE 21:11:07 10° SSE
Cosmos 1943 3.4 21:02:26 10° NNW 21:08:05 81° WSW 21:13:41 10° SSE
Aureole 3 Rocket 4.4 21:02:11 10° NNW 21:08:37 58° W 21:13:10 10° S
Meteor 2-3 Rocket 3.8 21:05:45 10° S 21:11:18 62° E 21:16:50 10° NNE
Abrixas rocket 3.4 21:10:18 10° NW 21:13:30 36° NNE 21:16:41 10° E
Meteor 1-26 Rocket 4.3 21:07:51 10° N 21:13:43 79° E 21:19:36 10° SSE
CZ-2D R/B 3.6 21:10:06 10° S 21:13:53 68° WSW 21:17:42 10° NNW
Okean 1-7 3.0 21:10:22 10° N 21:14:40 73° E 21:18:58 10° SSE
CZ-4 DEB 3.0 21:12:31 10° SSE 21:15:35 51° ENE 21:18:41 10° N
Cosmos 1844 Rocket 3.7 21:12:21 10° SSE 21:16:50 25° ESE 21:21:19 10° NE
Cosmos 2056 Rocket 4.1 21:12:28 10° SSE 21:17:07 34° E 21:21:44 10° NE
Cosmos 1371 Rocket 4.2 21:13:51 10° S 21:19:00 52° ESE 21:24:08 10° NNE
Cosmos 1340 Rocket 2.7 21:17:34 10° S 21:21:30 68° E 21:25:29 10° NNE
Cosmos 1461 3.5 21:19:32 10° SW 21:24:13 73° WNW 21:28:49 10° NNE
Cosmos 1939 Rocket 3.6 21:21:35 10° SE 21:25:02 34° ENE 21:28:33 10° N
Atlas Centaur 2 2.1 21:23:45 10° SW 21:26:49 27° S 21:29:21 14° ESE
Cosmos 1782 4.1 21:27:16 10° NNE 21:30:33 24° ENE 21:32:53 15° ESE
Cosmos 2263 Rocket 3.4 21:25:55 10° SW 21:31:22 47° WNW 21:36:50 10° N
FENGYUN 3A 4.5 21:29:17 10° S 21:34:31 52° W 21:39:47 10° NNW
CENTAUR R/B 3.3 21:28:35 10° NNW 21:36:25 61° NE 21:43:29 15° SE
SL-8 R/B 3.7 21:35:29 10° SW 21:40:19 87° NNW 21:45:09 10° NE
SL-27 R/B 4.1 21:38:10 10° NNE 21:41:03 22° ENE 21:42:35 17° E
Cosmos 1408 4.5 21:40:57 14° E 21:41:13 14° E 21:43:09 10° NE
YAOGAN 6 4.3 21:40:07 15° E 21:41:19 17° ENE 21:43:39 10° NNE
NOSS 2-2 (D) 3.4 21:38:18 10° SSW 21:42:20 73° ESE 21:46:51 10° NE
Coronas F rocket 1.1 21:41:09 10° S 21:43:47 87° E 21:46:26 10° N
Cosmos 2184 Rocket 3.9 21:39:22 10° S 21:45:30 78° E 21:51:40 10° N
COS B Rocket 4.3 21:45:40 10° NNE 21:49:20 29° E 21:50:52 22° ESE
deb Chang Zheng 4 3.5 21:45:02 10° NNE 21:49:27 76° ESE 21:53:52 10° S
Cosmos 1606 4.0 21:49:54 10° NNE 21:53:11 25° ENE 21:54:19 22° ESE
Cosmos 1908 Rocket 4.2 21:53:55 21° SE 21:56:15 37° E 22:00:19 10° NNE
Cosmos 1624 Rocket 4.0 21:51:17 10° SSW 21:56:32 86° WNW 22:01:51 10° NNE
NOSS 2-2 (C) 3.6 21:52:58 10° SW 21:57:00 77° WNW 22:01:34 10° NNE
Cosmos 1892 3.3 21:54:19 10° SSW 21:58:04 59° W 22:01:52 10° N
H-2A R/B 4.1 21:56:04 11° E 21:58:08 14° ENE 22:00:49 10° NNE
Envisat 2.9 21:53:57 15° SSE 21:58:09 77° ENE 22:03:14 10° N
SL-08 ROCKET BODY 4.4 21:52:39 10° S 21:58:44 89° E 22:04:44 10° N
Meteor 2-10 Rocket 3.8 21:53:31 10° N 21:59:22 85° W 22:04:46 12° S
Cosmos 1733 Rocket 3.2 21:57:53 10° S 22:02:18 76° W 22:06:44 10° N
Cosmos 1378 Rocket 4.4 22:03:07 10° NNE 22:06:59 31° ENE 22:08:06 27° ESE
Meteor 2-6 Rocket 4.3 22:01:40 10° N 22:07:37 70° E 22:11:37 21° SSE
CZ-4 SHROUD 3.6 22:08:16 39° E 22:08:42 42° ENE 22:11:40 10° N
SPOT 1/Viking Rocket 4.1 22:10:27 27° ESE 22:12:43 41° ENE 22:17:34 10° N
ERBS 2.8 22:12:27 10° NNW 22:15:50 49° NE 22:16:36 40° E
Cosmos 407 Rocket 3.7 22:14:26 10° N 22:19:39 58° ENE 22:21:52 33° SE
Cosmos 1452 Rocket 3.5 22:16:33 18° S 22:20:20 58° ESE 22:25:30 10° NNE
Cosmos 1238 Rocket 3.2 22:19:21 10° NNE 22:21:59 34° ENE 22:21:59 34° ENE
SPOT 5 3.0 22:19:22 24° SSE 22:22:32 86° WSW 22:27:54 10° NNW
H-2A R/B 2.9 22:24:05 18° SSW 22:27:02 47° W 22:31:11 10° NNW
ERS-1 Rocket 4.4 22:22:34 10° SSW 22:27:07 34° W 22:31:42 10° NNW
COSMOS 2406 3.3 22:22:09 10° NNW 22:27:53 74° WSW 22:30:59 28° S
PSLV R/B 3.0 22:29:27 73° WSW 22:29:32 74° W 22:32:30 10° NNW
Cosmos 1190 Rocket 3.9 22:25:03 10° NNW 22:30:15 88° WSW 22:32:30 35° SSE
Cosmos 2084 4.4 22:32:18 27° ENE 22:32:18 27° ENE 22:34:20 10° NE
MetOp-B 4.1 22:28:34 30° SSE 22:31:21 89° WSW 22:36:44 10° NNW
Cosmos 1862 3.2 22:33:23 40° S 22:34:47 89° W 22:38:53 10° N
Cosmos 1140 Rocket 4.5 22:32:10 10° N 22:36:41 30° ENE 22:37:36 28° E
Terra 3.1 22:37:59 24° ENE 22:38:23 25° ENE 22:42:13 10° NNE
Nadezhda 3 Rocket 4.0 22:32:04 10° N 22:38:27 86° E 22:41:45 31° S
ARGOS 3.1 22:38:33 41° SE 22:40:20 66° ENE 22:45:39 10° N
Okean 2 Rocket 3.0 22:42:45 58° SE 22:43:11 61° E 22:47:33 10° NNE
ATLAS 5 CENTAUR R/B 2.6 22:38:05 10° NW 22:44:09 66° WSW 22:46:55 35° S
Cosmos 2278 Rocket 2.1 22:43:32 27° S 22:46:40 74° ESE 22:52:20 10° NNE
PSLV R/B 3.5 22:43:29 10° WNW 22:46:43 69° NNW 22:46:43 69° NNW
Cosmos 1844 4.0 22:43:23 10° SSW 22:49:05 69° WNW 22:54:53 10° NNE
Abrixas rocket 4.1 22:47:37 10° WNW 22:49:51 24° WSW 22:49:51 24° WSW
USA 234 3.1 22:44:05 10° NE 22:50:38 82° SE 22:57:10 10° SW
Cosmos 2341 Rocket 4.0 22:46:29 22° S 22:50:48 81° W 22:57:06 10° N
CZ-4B R/B 3.5 22:47:31 10° N 22:52:29 73° WNW 22:54:54 30° SSW
CZ-4C R/B 4.1 22:54:26 39° NE 22:54:26 39° NE 22:57:35 10° N
Cosmos 1825 2.8 22:54:31 45° WSW 22:55:14 53° W 22:59:00 10° N
Cosmos 1833 Rocket 4.4 22:52:21 10° NNE 22:56:07 18° NE 22:57:19 17° ENE
Cosmos 676 Rocket 3.9 22:54:45 10° NNW 22:59:58 80° WSW 23:01:02 57° S
Cosmos 1844 Rocket 4.0 22:55:09 10° SW 23:00:26 40° WNW 23:05:44 10° N
Cosmos 1184 Rocket 3.9 23:04:00 44° NW 23:04:00 44° NW 23:06:42 10° N
Timation 2 Rocket 4.3 22:58:31 10° N 23:04:16 45° ENE 23:05:20 41° E
Meteor 1-27 Rocket 4.3 22:59:01 10° NNW 23:04:24 51° W 23:06:42 31° SSW
Cosmos 1954 Rocket 3.8 23:02:28 10° NNW 23:07:42 89° WSW 23:08:21 69° SSE
Cosmos 1782 Rocket 4.2 23:07:22 41° SW 23:08:31 53° W 23:12:54 10° N
Cosmos 2082 Rocket 3.4 23:04:00 10° N 23:08:54 29° ENE 23:09:37 28° ENE
Cosmos 1741 Rocket 4.4 23:09:45 10° N 23:14:50 49° ENE 23:14:51 49° ENE
COSMOS 2487 3.6 23:11:13 10° NNW 23:13:44 43° NNW 23:13:44 43° NNW
Atlas Centaur 2 3.7 23:11:43 10° WSW 23:12:00 12° WSW 23:12:00 12° WSW
Cosmos 1408 4.4 23:15:26 25° W 23:16:08 27° WNW 23:19:19 10° NNW
Cosmos 2297 3.6 23:16:56 65° ESE 23:16:56 65° ESE 23:22:36 10° NNE
IGS 5A 4.3 23:17:59 44° NNE 23:17:59 44° NNE 23:21:09 10° N
SL-8 Rocket 4.0 23:17:09 46° SSW 23:19:11 82° W 23:25:28 10° N
DNEPR-1 R/B 4.4 23:15:38 10° NNW 23:20:38 44° NE 23:20:38 44° NE
SL-08 RB Rocket 4.3 23:24:57 47° WSW 23:25:09 47° W 23:29:37 10° NNW
CENTAUR R/B 4.4 23:20:05 10° NW 23:26:50 30° WSW 23:30:41 21° SSW
CARTOSAT-1 4.0 23:27:44 59° N 23:27:44 59° N 23:31:16 10° N
Cosmos 1975 Rocket 3.9 23:23:20 10° NNW 23:27:24 43° W 23:27:24 43° W
H-2A R/B 2.1 23:36:42 71° WSW 23:36:54 72° WSW 23:42:17 10° NNW
Meteor 2-19 Rocket 4.3 23:37:43 72° ESE 23:37:49 72° E 23:43:56 10° NNE
Cosmos 1242 Rocket 4.4 23:35:16 10° NNW 23:37:28 29° NW 23:37:28 29° NW
Cosmos 1536 Rocket 4.4 23:35:47 10° N 23:39:02 47° NNE 23:39:02 47° NNE
Cosmos 2151 Rocket 4.5 23:49:00 48° NW 23:49:00 48° NW 23:52:41 10° N
Meteor 2-8 Rocket 4.3 23:45:37 10° N 23:51:48 87° W 23:51:55 85° SW
Meteor 1-20 Rocket 4.3 23:54:18 73° NNE 23:54:18 73° NNE 23:59:18 10° N
